This demonstration page uses our WeatherBlox Daily Observations layout. Learn more.

Left ArrowRight Arrow

39.51506, -84.39828

Hourly Observations for September 1, 2020

Temp ( °F °C ) Dew Point ( °F °C ) Humidity (%) Winds ( mph kmh ) Pressure ( in mb ) Visibility ( mi km ) Precip ( " mm )
12:15 am 00:15 Clear with Mist and Fog 69 20.8 69 20.6 99 99 Calm 29.9 1013 7 11.26538 0 0
12:35 am 00:35 Clear with Mist and Fog 69 20.7 69 20.5 99 99 Calm 29.9 1013 5 8.0467 0 0
12:55 am 00:55 Clear with Mist and Fog 68 20 68 20 100 100 Calm 29.91 1013 4 6.43736 0 0
1:15 am 01:15 Clear with Mist and Fog 68 20 N/A N/A Calm 29.92 1013 4 6.43736 0 0
1:35 am 01:35 Cloudy with Haze 68 20 N/A N/A Calm 29.92 1013 4 6.43736 0 0
1:55 am 01:55 Cloudy with Haze 68 20 N/A N/A Calm 29.92 1013 5 8.0467 0 0
2:15 am 02:15 Cloudy with Mist and Fog 69 20.8 69 20.7 99 99 Calm 29.92 1013 5 8.0467 0 0
2:35 am 02:35 Partly Cloudy with Mist and Fog 70 21 70 21 100 100 Calm 29.92 1013 5 8.0467 0 0
2:55 am 02:55 Cloudy with Haze 70 21 N/A N/A Calm 29.92 1013 5 8.0467 0 0
3:15 am 03:15 Cloudy with Haze 70 21 N/A N/A Calm 29.92 1013 5 8.0467 0 0
3:35 am 03:35 Hazy 70 21 N/A N/A Calm 29.92 1013 5 8.0467 0 0
3:55 am 03:55 Mostly Cloudy with Mist and Fog 68 20 N/A N/A Calm 29.92 1013 0.75 1.207005 0 0
4:15 am 04:15 Mostly Cloudy with Mist and Fog 68 20 N/A N/A Calm 29.92 1013 1.25 2.011675 0 0
4:35 am 04:35 Mostly Cloudy with Fog 68 20 N/A N/A Calm 29.91 1013 0.25 0.402335 0 0
4:55 am 04:55 Clear with Mist and Fog 66 19 N/A N/A Calm 29.91 1013 2 3.21868 0 0
5:15 am 05:15 Clear with Mist and Fog 66 19 N/A N/A Calm 29.91 1013 2 3.21868 0 0
5:35 am 05:35 Mostly Cloudy with Mist and Fog 66 19 N/A N/A Calm 29.92 1013 1 1.60934 0 0
5:55 am 05:55 Mostly Cloudy with Mist and Fog 66 19 N/A N/A Calm 29.92 1013 1.5 2.41401 0 0
6:15 am 06:15 Clear with Mist and Fog 66 19 N/A N/A Calm 29.91 1013 2.5 4.02335 0 0
6:35 am 06:35 Cloudy with Fog 64 18 N/A N/A Calm 29.92 1013 0.25 0.402335 0 0
6:55 am 06:55 Cloudy with Fog 64 18 N/A N/A Calm 29.94 1014 N/A 0 0
7:15 am 07:15 Cloudy with Fog 66 19 N/A N/A Calm 29.94 1014 0.5 0.80467 0 0
7:35 am 07:35 Cloudy with Fog 66 19 N/A N/A Calm 29.95 1014 0.25 0.402335 0 0
7:55 am 07:55 Cloudy with Mist and Fog 68 20 N/A N/A Calm 29.95 1014 1.5 2.41401 0 0
8:15 am 08:15 Cloudy with Mist and Fog 68 20 N/A N/A Calm 29.95 1014 2.5 4.02335 0 0
8:35 am 08:35 Cloudy with Mist and Fog 70 21 N/A N/A Calm 29.95 1014 4 6.43736 0 0
8:55 am 08:55 Cloudy with Mist and Fog 70 21 N/A N/A Calm 29.95 1014 4 6.43736 0 0
9:15 am 09:15 Cloudy with Haze 70 21 N/A N/A Calm 29.95 1014 5 8.0467 0 0
9:35 am 09:35 Cloudy with Mist and Fog 72 22.2 71 21.9 98 98 Calm 29.96 1015 5 8.0467 0 0
9:55 am 09:55 Cloudy with Mist and Fog 75 23.8 72 22.1 90 90 Calm 29.95 1014 7 11.26538 0 0
10:15 am 10:15 Mostly Cloudy with Mist and Fog 75 23.9 72 22 89 89 Calm 29.96 1014 5 8.0467 0 0
10:35 am 10:35 Mostly Cloudy with Haze 77 24.9 72 22.1 85 85 Calm 29.94 1014 5 8.0467 0 0
10:55 am 10:55 Hazy 78 25.4 72 22 82 82 Calm 29.94 1014 5 8.0467 0 0
11:15 am 11:15 Sunny 79 26 71 21.8 78 78 SSE 3 6 29.94 1014 10 16.0934 0 0
11:35 am 11:35 Partly Cloudy 80 26.6 71 21.6 74 74 SE 3 6 29.94 1014 10 16.0934 0 0
11:55 am 11:55 Cloudy 82 27.7 71 21.8 70 70 SE 5 7 29.94 1014 10 16.0934 0 0
12:15 pm 12:15 Partly Cloudy 82 27.5 70 21 68 68 Calm 29.93 1013 10 16.0934 0 0
12:35 pm 12:35 Partly Cloudy 81 27.2 70 21.2 70 70 ENE 3 6 29.93 1013 10 16.0934 0 0
12:55 pm 12:55 Partly Cloudy 82 27.7 71 21.4 69 69 E 3 6 29.92 1013 10 16.0934 0 0
1:15 pm 13:15 Mostly Cloudy 82 27.8 71 21.4 68 68 ESE 3 6 29.92 1013 10 16.0934 0 0
1:35 pm 13:35 Cloudy 82 28 71 21.5 68 68 Calm 29.93 1013 10 16.0934 0 0
1:55 pm 13:55 Partly Cloudy 83 28.4 70 21.3 65 65 SW 3 6 29.93 1013 10 16.0934 0 0
2:15 pm 14:15 Partly Cloudy 85 29.7 71 21.4 61 61 WSW 7 11 29.91 1013 10 16.0934 0 0
2:35 pm 14:35 Partly Cloudy 86 30.1 70 21.1 59 59 SSW 9 15 29.91 1013 10 16.0934 0 0
2:55 pm 14:55 Sunny 86 30.1 70 21 58 58 SW 10 17 29.9 1013 10 16.0934 0 0
3:15 pm 15:15 Sunny 86 29.8 70 21.3 60 60 WSW 8 13 29.89 1012 10 16.0934 0 0
3:35 pm 15:35 Partly Cloudy 85 29.2 70 21.1 62 62 SSW 8 13 29.88 1012 10 16.0934 0 0
3:55 pm 15:55 Partly Cloudy 85 29.4 70 20.9 60 60 SSW 9 15 29.88 1012 10 16.0934 0 0
4:15 pm 16:15 Sunny 85 29.5 69 20.7 59 59 SSW 8 13 29.87 1012 10 16.0934 0 0
4:35 pm 16:35 Sunny 85 29.2 69 20.6 60 60 WSW 7 11 29.87 1012 10 16.0934 0 0
4:55 pm 16:55 Partly Cloudy 84 29.1 70 21.2 62 62 SW 7 11 29.87 1012 10 16.0934 0 0
5:15 pm 17:15 Sunny 84 28.9 71 21.4 64 64 SW 7 11 29.87 1012 10 16.0934 0 0
5:35 pm 17:35 Sunny 83 28.6 71 21.4 65 65 SW 8 13 29.87 1011 10 16.0934 0 0
5:55 pm 17:55 Sunny 83 28.6 70 21.2 64 64 SW 8 13 29.88 1012 10 16.0934 0 0
6:15 pm 18:15 Sunny 82 27.8 71 21.7 69 69 WSW 6 9 29.87 1011 10 16.0934 0 0
6:35 pm 18:35 Sunny 82 27.5 71 21.9 72 72 WSW 5 7 29.87 1011 10 16.0934 0 0
6:55 pm 18:55 Sunny 81 27.3 72 22.1 73 73 WSW 6 9 29.87 1011 10 16.0934 0 0
7:15 pm 19:15 Sunny 81 27.1 72 22 74 74 WSW 5 7 29.87 1011 10 16.0934 0 0
7:35 pm 19:35 Sunny 80 26.7 72 22.1 76 76 WSW 3 6 29.87 1011 10 16.0934 0 0
7:55 pm 19:55 Sunny 79 26.2 72 22.2 79 79 WSW 3 6 29.87 1012 10 16.0934 0 0
8:15 pm 20:15 Clear 78 25.7 72 22.2 81 81 Calm 29.86 1011 10 16.0934 0 0
8:35 pm 20:35 Clear 76 24.6 72 22.3 87 87 SW 3 6 29.87 1012 10 16.0934 0 0
8:55 pm 20:55 Partly Cloudy 76 24.7 72 22.4 87 87 Calm 29.87 1012 10 16.0934 0 0
9:15 pm 21:15 Mostly Cloudy 76 24.7 73 22.6 88 88 SSW 3 6 29.87 1012 10 16.0934 0 0
9:35 pm 21:35 Partly Cloudy 76 24.3 73 22.7 91 91 W 3 6 29.88 1012 10 16.0934 0 0
9:55 pm 21:55 Partly Cloudy 75 24.1 73 22.8 92 92 Calm 29.89 1012 10 16.0934 0 0
10:15 pm 22:15 Clear 75 23.9 73 22.9 94 94 Calm 29.88 1012 10 16.0934 0 0
10:35 pm 22:35 Mostly Cloudy 75 23.8 73 22.9 95 95 Calm 29.87 1011 10 16.0934 0 0
10:55 pm 22:55 Cloudy 75 23.7 73 22.9 95 95 Calm 29.87 1011 10 16.0934 0 0
11:15 pm 23:15 Partly Cloudy 76 24.2 73 22.8 92 92 SW 5 7 29.87 1011 10 16.0934 0 0
11:35 pm 23:35 Partly Cloudy 75 24 73 22.8 93 93 SSW 3 6 29.87 1011 10 16.0934 0 0
11:55 pm 23:55 Cloudy 75 23.7 73 22.8 95 95 Calm 29.87 1011 10 16.0934 0 0

Powered by AerisWeather